timestamp,wind_dir_avg,wind_spd_avg,wind_spd_max_dir,wind_spd_gust,battery_voltage,lat,long
2021-12-11 00:04:01+00:00,318.0,6.32,322.0,7.59,12.57,47.59359,-54.27349
2021-12-11 00:14:01+00:00,318.0,6.07,315.0,8.34,12.49,47.59359,-54.27349
2021-12-11 00:24:01+00:00,313.0,6.42,309.0,7.86,12.49,47.59359,-54.27349
2021-12-11 00:34:01+00:00,296.0,5.75,299.0,7.58,12.49,47.59359,-54.27349
2021-12-11 00:44:01+00:00,301.0,6.36,297.0,7.63,12.49,47.59359,-54.27349
2021-12-11 00:54:01+00:00,301.0,6.55,306.0,7.58,12.49,47.59359,-54.27349
2021-12-11 01:04:01+00:00,296.0,6.09,291.0,7.15,12.49,47.59359,-54.27349
2021-12-11 01:14:01+00:00,299.0,6.5,301.0,7.74,12.49,47.59359,-54.27349
2021-12-11 01:24:01+00:00,306.0,5.18,313.0,5.94,12.49,47.59359,-54.27349
2021-12-11 01:34:01+00:00,307.0,5.1,299.0,7.72,12.49,47.59359,-54.27349
2021-12-11 01:44:01+00:00,304.0,7.01,307.0,8.06,12.49,47.59359,-54.27349
2021-12-11 01:54:01+00:00,294.0,5.38,295.0,6.01,12.49,47.59359,-54.27349
2021-12-11 02:04:01+00:00,280.0,1.27,276.0,5.02,12.49,47.59359,-54.27349
2021-12-11 02:14:00+00:00,292.0,5.87,293.0,6.83,12.49,47.59359,-54.27349
2021-12-11 02:24:00+00:00,299.0,2.92,285.0,5.38,12.49,47.59359,-54.27349
2021-12-11 02:34:00+00:00,273.0,4.8,282.0,6.83,12.49,47.59359,-54.27349
2021-12-11 02:44:00+00:00,275.0,5.54,271.0,6.28,12.49,47.59359,-54.27349
2021-12-11 02:54:00+00:00,287.0,5.99,287.0,6.59,12.49,47.59359,-54.27349
2021-12-11 03:04:00+00:00,285.0,4.89,292.0,5.83,12.49,47.59359,-54.27349
2021-12-11 03:14:01+00:00,280.0,4.99,284.0,6.88,12.41,47.59359,-54.27349
2021-12-11 03:24:01+00:00,279.0,6.22,281.0,6.89,12.41,47.59359,-54.27349
2021-12-11 03:34:01+00:00,282.0,5.84,291.0,6.91,12.41,47.59359,-54.27349
2021-12-11 03:44:01+00:00,294.0,5.57,287.0,6.61,12.41,47.59359,-54.27349
2021-12-11 03:54:01+00:00,286.0,6.24,292.0,7.08,12.41,47.59359,-54.27349
2021-12-11 04:04:01+00:00,289.0,6.23,291.0,7.33,12.41,47.59359,-54.27349
2021-12-11 04:14:00+00:00,294.0,6.68,294.0,7.42,12.41,47.59359,-54.27349
2021-12-11 04:24:00+00:00,286.0,6.27,286.0,6.9,12.41,47.59359,-54.27349
2021-12-11 04:34:00+00:00,289.0,5.12,289.0,7.1,12.41,47.59359,-54.27349
2021-12-11 04:44:00+00:00,294.0,4.61,286.0,7.08,12.41,47.59359,-54.27349
2021-12-11 04:54:00+00:00,281.0,5.78,284.0,6.97,12.41,47.59359,-54.27349
2021-12-11 05:04:00+00:00,274.0,5.85,277.0,6.61,12.41,47.59359,-54.27349
2021-12-11 05:14:01+00:00,282.0,6.08,289.0,6.8,12.41,47.59359,-54.27349
2021-12-11 05:24:01+00:00,293.0,4.38,287.0,6.7,12.41,47.59359,-54.27349
2021-12-11 05:34:01+00:00,294.0,6.38,288.0,7.06,12.41,47.59359,-54.27349
2021-12-11 05:44:01+00:00,290.0,5.8,287.0,7.13,12.41,47.59359,-54.27349
2021-12-11 05:54:01+00:00,289.0,4.79,284.0,6.77,12.41,47.59359,-54.27349
2021-12-11 06:04:01+00:00,285.0,3.53,285.0,5.15,12.41,47.59359,-54.27349
2021-12-11 06:14:00+00:00,284.0,4.49,274.0,6.57,12.41,47.59359,-54.27349
2021-12-11 06:24:00+00:00,283.0,5.98,285.0,7.01,12.41,47.59359,-54.27349
2021-12-11 06:34:00+00:00,290.0,6.08,293.0,7.31,12.41,47.59359,-54.27349
2021-12-11 06:44:00+00:00,279.0,5.04,276.0,6.76,12.41,47.59359,-54.27349
2021-12-11 06:54:00+00:00,296.0,3.28,289.0,5.83,12.41,47.59359,-54.27349
2021-12-11 07:04:00+00:00,287.0,2.85,264.0,6.06,12.41,47.59359,-54.27349
2021-12-11 07:14:00+00:00,359.0,2.15,1.0,3.21,12.41,47.59359,-54.27349
2021-12-11 07:24:00+00:00,293.0,5.47,287.0,6.56,12.41,47.59359,-54.27349
2021-12-11 07:34:00+00:00,285.0,5.71,288.0,6.53,12.41,47.59359,-54.27349
2021-12-11 07:44:00+00:00,294.0,5.53,293.0,6.2,12.41,47.59359,-54.27349
2021-12-11 07:54:00+00:00,289.0,4.41,283.0,6.44,12.41,47.59359,-54.27349
2021-12-11 08:04:00+00:00,277.0,3.36,272.0,5.26,12.41,47.59359,-54.27349
2021-12-11 08:14:01+00:00,283.0,3.58,284.0,4.39,12.33,47.59359,-54.27349
2021-12-11 08:24:01+00:00,282.0,5.07,284.0,6.23,12.33,47.59359,-54.27349
2021-12-11 08:34:01+00:00,297.0,3.71,284.0,5.46,12.33,47.59359,-54.27349
2021-12-11 08:44:01+00:00,299.0,4.22,290.0,6.41,12.33,47.59359,-54.27349
2021-12-11 08:54:01+00:00,300.0,4.02,302.0,4.8,12.33,47.59359,-54.27349
2021-12-11 09:04:01+00:00,286.0,3.76,295.0,4.43,12.33,47.59359,-54.27349
2021-12-11 09:14:01+00:00,279.0,3.41,278.0,6.26,12.33,47.59359,-54.27349
2021-12-11 09:24:01+00:00,298.0,3.62,289.0,5.79,12.33,47.59359,-54.27349
2021-12-11 09:34:01+00:00,273.0,3.41,273.0,4.5,12.33,47.59359,-54.27349
2021-12-11 09:44:01+00:00,291.0,3.52,288.0,5.88,12.33,47.59359,-54.27349
2021-12-11 09:54:01+00:00,298.0,3.9,287.0,6.24,12.33,47.59359,-54.27349
2021-12-11 10:04:01+00:00,290.0,2.87,294.0,4.59,12.33,47.59359,-54.27349
2021-12-11 10:14:00+00:00,296.0,3.14,276.0,5.47,12.33,47.59359,-54.27349
2021-12-11 10:24:00+00:00,289.0,4.49,282.0,5.82,12.33,47.59359,-54.27349
2021-12-11 10:34:00+00:00,337.0,1.56,290.0,3.81,12.33,47.59359,-54.27349
2021-12-11 10:44:00+00:00,2.0,2.61,1.0,3.53,12.33,47.59359,-54.27349
2021-12-11 10:54:00+00:00,352.0,1.51,350.0,2.22,12.33,47.59359,-54.27349
2021-12-11 11:04:00+00:00,319.0,1.78,295.0,4.19,12.33,47.59359,-54.27349
2021-12-11 11:14:01+00:00,341.0,0.59,285.0,0.99,12.33,47.59359,-54.27349
2021-12-11 11:24:01+00:00,345.0,0.92,346.0,1.79,12.33,47.59359,-54.27349
2021-12-11 11:34:01+00:00,84.0,2.03,89.0,3.14,12.33,47.59359,-54.27349
2021-12-11 11:44:01+00:00,27.0,2.04,75.0,2.87,12.33,47.59359,-54.27349
2021-12-11 11:54:01+00:00,320.0,0.94,300.0,1.72,12.33,47.59359,-54.27349
2021-12-11 12:04:01+00:00,48.0,1.65,32.0,2.83,12.33,47.59359,-54.27349
2021-12-11 12:14:00+00:00,67.0,2.06,78.0,2.6,12.41,47.59359,-54.27349
2021-12-11 12:24:00+00:00,130.0,1.88,119.0,2.53,12.41,47.59359,-54.27349
2021-12-11 12:34:00+00:00,138.0,2.65,143.0,3.28,12.41,47.59359,-54.27349
2021-12-11 12:44:00+00:00,146.0,2.55,146.0,3.22,12.41,47.59359,-54.27349
2021-12-11 12:54:00+00:00,151.0,1.99,165.0,2.62,12.41,47.59359,-54.27349
2021-12-11 13:04:00+00:00,196.0,1.48,193.0,1.83,12.41,47.59359,-54.27349
2021-12-11 13:14:01+00:00,176.0,1.03,174.0,1.38,13.21,47.59359,-54.27349
2021-12-11 13:24:01+00:00,207.0,2.22,209.0,2.68,13.21,47.59359,-54.27349
2021-12-11 13:34:01+00:00,151.0,2.54,152.0,3.83,13.21,47.59359,-54.27349
2021-12-11 13:44:01+00:00,231.0,4.14,229.0,5.64,13.21,47.59359,-54.27349
2021-12-11 13:54:01+00:00,192.0,2.99,222.0,4.84,13.21,47.59359,-54.27349
2021-12-11 14:04:01+00:00,256.0,5.17,261.0,9.27,13.21,47.59359,-54.27349
2021-12-11 14:14:01+00:00,246.0,4.32,263.0,8.1,13.68,47.59359,-54.27349
2021-12-11 14:24:01+00:00,252.0,9.36,253.0,10.23,13.68,47.59359,-54.27349
2021-12-11 14:34:01+00:00,255.0,10.42,248.0,11.3,13.68,47.59359,-54.27349
2021-12-11 14:44:01+00:00,256.0,9.43,254.0,10.19,13.68,47.59359,-54.27349
2021-12-11 14:54:01+00:00,251.0,9.71,248.0,10.28,13.68,47.59359,-54.27349
2021-12-11 15:04:01+00:00,249.0,8.19,253.0,10.02,13.68,47.59359,-54.27349
2021-12-11 15:14:00+00:00,253.0,9.19,251.0,10.41,14.24,47.59359,-54.27349
2021-12-11 15:24:00+00:00,247.0,9.29,248.0,10.32,14.24,47.59359,-54.27349
2021-12-11 15:34:00+00:00,254.0,10.64,256.0,11.41,14.24,47.59359,-54.27349
2021-12-11 15:44:00+00:00,248.0,9.4,248.0,11.2,14.24,47.59359,-54.27349
2021-12-11 15:54:00+00:00,251.0,9.2,249.0,10.76,14.24,47.59359,-54.27349
2021-12-11 16:04:00+00:00,253.0,9.13,249.0,10.93,14.24,47.59359,-54.27349
2021-12-11 16:14:01+00:00,238.0,8.84,242.0,10.18,13.68,47.59359,-54.27349
2021-12-11 16:24:01+00:00,240.0,8.39,237.0,9.17,13.68,47.59359,-54.27349
2021-12-11 16:34:01+00:00,233.0,8.89,241.0,10.93,13.68,47.59359,-54.27349
2021-12-11 16:44:01+00:00,231.0,7.75,237.0,9.89,13.68,47.59359,-54.27349
2021-12-11 16:54:01+00:00,234.0,8.48,234.0,9.8,13.68,47.59359,-54.27349
2021-12-11 17:04:01+00:00,234.0,9.01,230.0,10.34,13.68,47.59359,-54.27349
2021-12-11 17:14:01+00:00,231.0,8.01,232.0,9.51,14.32,47.59359,-54.27349
2021-12-11 17:24:01+00:00,235.0,9.01,234.0,10.25,14.32,47.59359,-54.27349
2021-12-11 17:34:01+00:00,236.0,9.51,237.0,11.46,14.32,47.59359,-54.27349
2021-12-11 17:44:01+00:00,249.0,10.12,251.0,11.8,14.32,47.59359,-54.27349
2021-12-11 17:54:01+00:00,250.0,9.23,257.0,10.73,14.32,47.59359,-54.27349
2021-12-11 18:04:01+00:00,250.0,7.64,248.0,8.74,14.32,47.59359,-54.27349
2021-12-11 18:14:00+00:00,252.0,6.97,248.0,7.94,14.4,47.59359,-54.27349
2021-12-11 18:24:00+00:00,247.0,7.33,249.0,8.84,14.4,47.59359,-54.27349
2021-12-11 18:34:00+00:00,246.0,7.11,243.0,7.87,14.4,47.59359,-54.27349
2021-12-11 18:44:00+00:00,254.0,6.53,254.0,7.21,14.4,47.59359,-54.27349
2021-12-11 18:54:00+00:00,247.0,5.6,242.0,6.18,14.4,47.59359,-54.27349
2021-12-11 19:04:00+00:00,252.0,7.74,265.0,11.2,14.4,47.59359,-54.27349
2021-12-11 19:14:01+00:00,249.0,7.98,259.0,10.09,13.29,47.59359,-54.27349
2021-12-11 19:24:01+00:00,259.0,7.22,263.0,9.2,13.29,47.59359,-54.27349
2021-12-11 19:34:01+00:00,253.0,7.22,246.0,8.28,13.29,47.59359,-54.27349
2021-12-11 19:44:01+00:00,251.0,7.57,249.0,8.17,13.29,47.59359,-54.27349
2021-12-11 19:54:01+00:00,247.0,8.17,244.0,8.65,13.29,47.59359,-54.27349
2021-12-11 20:04:01+00:00,256.0,7.35,257.0,7.89,13.29,47.59359,-54.27349
2021-12-11 20:14:01+00:00,259.0,7.13,260.0,7.68,12.73,47.59359,-54.27349
2021-12-11 20:24:01+00:00,255.0,7.02,253.0,7.88,12.73,47.59359,-54.27349
2021-12-11 20:34:01+00:00,253.0,7.01,248.0,7.82,12.73,47.59359,-54.27349
2021-12-11 20:44:01+00:00,262.0,6.47,270.0,7.23,12.73,47.59359,-54.27349
2021-12-11 20:54:01+00:00,250.0,6.45,250.0,7.19,12.73,47.59359,-54.27349
2021-12-11 21:04:01+00:00,254.0,7.19,253.0,7.84,12.73,47.59359,-54.27349
2021-12-11 21:14:01+00:00,256.0,7.79,259.0,9.97,12.65,47.59359,-54.27349
2021-12-11 21:24:01+00:00,254.0,6.66,255.0,7.2,12.65,47.59359,-54.27349
2021-12-11 21:34:01+00:00,257.0,6.31,253.0,7.03,12.65,47.59359,-54.27349
2021-12-11 21:44:01+00:00,250.0,5.45,251.0,6.09,12.65,47.59359,-54.27349
2021-12-11 21:54:01+00:00,255.0,5.79,258.0,6.54,12.65,47.59359,-54.27349
2021-12-11 22:04:01+00:00,248.0,5.27,248.0,6.0,12.65,47.59359,-54.27349
2021-12-11 22:14:00+00:00,244.0,5.17,254.0,6.17,12.57,47.59359,-54.27349
2021-12-11 22:24:00+00:00,246.0,5.53,246.0,6.52,12.57,47.59359,-54.27349
2021-12-11 22:34:00+00:00,251.0,5.67,248.0,6.76,12.57,47.59359,-54.27349
2021-12-11 22:44:00+00:00,239.0,4.45,249.0,4.98,12.57,47.59359,-54.27349
2021-12-11 22:54:00+00:00,253.0,4.85,258.0,5.9,12.57,47.59359,-54.27349
2021-12-11 23:04:00+00:00,254.0,5.36,254.0,6.48,12.57,47.59359,-54.27349
2021-12-11 23:14:01+00:00,251.0,5.9,252.0,6.66,12.57,47.59359,-54.27349
2021-12-11 23:24:01+00:00,236.0,5.84,241.0,6.65,12.57,47.59359,-54.27349
2021-12-11 23:34:01+00:00,230.0,5.02,230.0,5.92,12.57,47.59359,-54.27349
2021-12-11 23:44:01+00:00,236.0,5.05,235.0,5.83,12.57,47.59359,-54.27349
2021-12-11 23:54:01+00:00,236.0,5.44,248.0,6.27,12.57,47.59359,-54.27349
